Chambery, France

9:02 AM CEST on August 26, 2016 (GMT +0200)
Aix-les-Bains

Weather History for LFLB - March, 2013

Change the Weather History Date:

Sunday, March 3, 2013

  Actual Average Record
Temperature  
Mean Temperature 36 °F -  
Max Temperature 46 °F 55 °F 62 °F (1997)
Min Temperature 26 °F 36 °F 19 °F (2005)
Degree Days  
Heating Degree Days 29    
Moisture  
Dew Point 29 °F    
Average Humidity 75    
Maximum Humidity 93    
Minimum Humidity 53    
Precipitation  
Precipitation 0.00 in - - ()
Sea Level Pressure  
Sea Level Pressure 30.09 in    
Wind  
Wind Speed 4 mph ()    
Max Wind Speed 13 mph    
Max Gust Speed -    
Visibility 3.5 miles    
Events      
Averages and records for this station are not official NWS values.
T = Trace of Precipitation, MM = Missing Value Source: Averaged Metar Reports

Daily Weather History Graph

Daily Weather History Graph

Search for Another Location

Airport or City:

Trip Planner

Search our weather history database for the weather conditions in past years. The results will help you decide how hot, cold, wet, or windy it might be!

Date:

Astronomy

Mar. 03, 2013 Rise Set
Actual Time 7:11 AM CET 6:26 PM CET
Civil Twilight 6:41 AM CET 6:55 PM CET
Nautical Twilight 6:07 AM CET 7:30 PM CET
Astronomical Twilight 5:32 AM CET 8:04 PM CET
Moon 12:05 AM CET (3/3) 9:53 AM CET (3/3)
Length of Visible Light 12h 14m
Length of Day
11h 14m
Waning Gibbous, 66% of the Moon is Illuminated
Mar 3
Waning Gibbous
Mar 4
Last Quarter
Mar 11
New
Mar 19
First Quarter
Mar 27
Full

Hourly Weather History & Observations

Time (CET) Temp. Windchill Dew Point Humidity Pressure Visibility Wind Dir Wind Speed Gust Speed Precip Events Conditions
12:00 AM 32.0 °F - 26.6 °F 80% 30.15 in 3.1 mi Calm Calm - N/A   Mist
12:30 AM 30.2 °F - 26.6 °F 86% 30.15 in - Calm Calm - N/A   Mist
1:00 AM 30.2 °F - 26.6 °F 86% 30.15 in - Variable 1.2 mph - N/A   Partly Cloudy
1:30 AM 28.4 °F - 26.6 °F 93% 30.15 in - South 2.3 mph - N/A   Partly Cloudy
2:00 AM 28.4 °F - 26.6 °F 93% 30.15 in - SSE 1.2 mph - N/A   Mist
2:30 AM 28.4 °F 24.6 °F 24.8 °F 86% 30.15 in - SSE 3.5 mph - N/A   Mist
3:00 AM 28.4 °F - 24.8 °F 86% 30.15 in 1.6 mi Calm Calm - N/A   Mist
3:30 AM 28.4 °F - 26.6 °F 93% 30.15 in 1.7 mi Calm Calm - N/A   Mist
4:00 AM 26.6 °F - 24.8 °F 93% 30.15 in 1.6 mi Variable 2.3 mph - N/A   Partly Cloudy
4:30 AM 26.6 °F 22.6 °F 24.8 °F 93% 30.15 in - South 3.5 mph - N/A   Overcast
5:00 AM 26.6 °F - 24.8 °F 93% 30.12 in - SSE 2.3 mph - N/A   Overcast
5:30 AM 28.4 °F - 26.6 °F 93% 30.12 in - Calm Calm - N/A   Overcast
6:00 AM 28.4 °F - 24.8 °F 86% 30.12 in 1.9 mi SSE 1.2 mph - N/A   Mostly Cloudy
6:30 AM 26.6 °F - 24.8 °F 93% 30.12 in 1.9 mi SE 2.3 mph - N/A   Mostly Cloudy
7:00 AM 26.6 °F - 24.8 °F 93% 30.12 in 1.9 mi SE 2.3 mph - N/A   Mostly Cloudy
7:30 AM 26.6 °F - 24.8 °F 93% 30.12 in 2.2 mi SSE 2.3 mph - N/A   Mostly Cloudy
8:00 AM 28.4 °F - 26.6 °F 93% 30.12 in 2.5 mi Variable 2.3 mph - N/A   Mostly Cloudy
8:30 AM 32.0 °F - 30.2 °F 93% 30.12 in 3.1 mi Calm Calm - N/A   Mostly Cloudy
9:00 AM 33.8 °F - 30.2 °F 87% 30.12 in 3.1 mi Calm Calm - N/A   Mostly Cloudy
9:30 AM 37.4 °F 34.9 °F 30.2 °F 75% 30.12 in 3.1 mi North 3.5 mph - N/A   Mostly Cloudy
10:00 AM 39.2 °F 32.5 °F 30.2 °F 70% 30.12 in 3.7 mi NNE 10.4 mph - N/A   Mostly Cloudy
10:37 AM 39.2 °F 31.6 °F 30.2 °F 70% 30.12 in 3.7 mi North 12.7 mph - N/A   Mostly Cloudy
11:04 AM 39.2 °F 31.6 °F 30.2 °F 70% 30.09 in 4.3 mi NNE 12.7 mph - N/A   Mostly Cloudy
11:30 AM 41.0 °F 33.9 °F 30.2 °F 65% 30.09 in 4.3 mi North 12.7 mph - N/A   Mostly Cloudy
12:00 PM 41.0 °F 34.3 °F 30.2 °F 65% 30.09 in 4.3 mi North 11.5 mph - N/A   Scattered Clouds
12:30 PM 42.8 °F 36.6 °F 30.2 °F 61% 30.09 in 4.3 mi North 11.5 mph - N/A   Partly Cloudy
1:07 PM 42.8 °F 36.2 °F 30.2 °F 61% 30.09 in 4.3 mi North 12.7 mph - N/A   Unknown
1:30 PM 42.8 °F 36.6 °F 32.0 °F 66% 30.06 in 4.3 mi North 11.5 mph - N/A   Unknown
2:00 PM 44.6 °F 40.2 °F 32.0 °F 61% 30.06 in 4.3 mi North 8.1 mph - N/A   Unknown
2:30 PM 44.6 °F 40.2 °F 30.2 °F 57% 30.06 in 4.3 mi North 8.1 mph - N/A   Unknown
3:00 PM 44.6 °F 40.7 °F 32.0 °F 61% 30.06 in 4.3 mi NNW 6.9 mph - N/A   Unknown
3:42 PM 46.4 °F 42.9 °F 32.0 °F 57% 30.04 in 4.3 mi North 6.9 mph - N/A   Unknown
4:00 PM 46.4 °F 42.4 °F 30.2 °F 53% 30.04 in 4.3 mi North 8.1 mph - N/A   Unknown
4:30 PM 46.4 °F 42.4 °F 32.0 °F 57% 30.04 in 4.3 mi North 8.1 mph - N/A   Unknown
5:00 PM 46.4 °F 42.9 °F 32.0 °F 57% 30.04 in 4.3 mi NNW 6.9 mph - N/A   Unknown
5:30 PM 44.6 °F 40.2 °F 32.0 °F 61% 30.04 in 4.3 mi North 8.1 mph - N/A   Unknown
6:00 PM 42.8 °F 37.0 °F 32.0 °F 66% 30.04 in 4.3 mi North 10.4 mph - N/A   Unknown
6:30 PM 42.8 °F 38.0 °F 30.2 °F 61% 30.04 in 4.3 mi NNW 8.1 mph - N/A   Unknown
7:00 PM 41.0 °F 36.4 °F 32.0 °F 70% 30.04 in 4.3 mi NNW 6.9 mph - N/A   Unknown
7:30 PM 41.0 °F 35.2 °F 30.2 °F 65% 30.04 in 3.7 mi North 9.2 mph - N/A   Unknown
8:00 PM 39.2 °F 35.0 °F 30.2 °F 70% 30.06 in 3.7 mi North 5.8 mph - N/A   Unknown
8:30 PM 37.4 °F 33.8 °F 30.2 °F 75% 30.06 in - NNE 4.6 mph - N/A   Mist
9:00 PM 39.2 °F 33.0 °F 30.2 °F 70% 30.06 in 3.7 mi NNW 9.2 mph - N/A   Unknown
9:30 PM 41.0 °F 35.8 °F 30.2 °F 65% 30.06 in 3.7 mi NNW 8.1 mph - N/A   Unknown
10:00 PM 39.2 °F 34.2 °F 30.2 °F 70% 30.06 in 3.1 mi NNW 6.9 mph - N/A   Mist
10:30 PM 39.2 °F 35.0 °F 30.2 °F 70% 30.06 in 3.1 mi NW 5.8 mph - N/A   Mist
11:00 PM 35.6 °F 30.7 °F 28.4 °F 75% 30.06 in - North 5.8 mph - N/A   Mist
11:30 PM 37.4 °F 32.8 °F 30.2 °F 75% 30.06 in 3.1 mi NW 5.8 mph - N/A   Mist